Tracking 32938 objects as of 12-Jan-2026
HD Live streaming from Space Station
objects crossing your sky now

THOR ABLESTAR DEB *

Track THOR ABLESTAR DEB * now!
10-day predictions


NORAD ID: 18651
Int'l Code: 1961-015LW
Perigee: 921.7 km
Apogee: 2,102.1 km
Inclination: 65.7 °
Period: 116.1 minutes
Semi major axis: 7882 km
RCS: 0.0068 m2 (small)
Launch date: June 29, 1961
Source: United States (US)
Launch site: AIR FORCE EASTERN TEST RANGE (AFETR)

Note: This is SATELLITE DEBRIS
Your satellite tracking list
Your tracking list is empty




NASA's NSSDC Master Catalog

Two Line Element Set (TLE):
1 18651U 61015LW  26011.45961440 -.00000034  00000-0  66498-4 0  9992
2 18651  65.6955 186.0472 0748716 337.2377  43.5138 12.40427098584864
Source of the keplerian elements: AFSPC